Regional Weather Roundup
Issued by NWS State College, PA

Home | Current Version | Previous Version | Text Only | Print | Product List | Glossary Off
Versions: 1 2 3 4 5 6 7 8 9 10 11 12 13 14 15 16 17 18 19 20 21 22 23 24 25 26 27 28 29 30 31 32 33 34 35 36 37 38 39 40 41 42 43 44 45 46 47 48 49 50

000
ASUS41 KCTP 252303
RWRCTP

REGIONAL WEATHER ROUNDUP
NATIONAL WEATHER SERVICE STATE COLLEGE PA
700 PM EDT TUE JUL 25 2017

Note: "fair" indicates few or no clouds below 12,000 feet with no
significant weather and/or obstructions to visibility.

* = STATION THAT DOES NOT REPORT PRECIPITATION /E.G. RAIN...SNOW...ETC/
    THUNDER OR FOG.

PAZ002>004-007>009-013>016-020>023-029>032-260000-
WESTERN PENNSYLVANIA

CITY           SKY/WX    TMP DP  RH WIND       PRES   REMARKS
ERIE           SUNNY     70  53  54 NE14      30.21F
MEADVILLE      SUNNY     70  57  63 N7        30.22F
FRANKLIN*      SUNNY     70  55  60 N5        30.22S
NEW CASTLE     FAIR      75  59  57 NW6       30.21
BEAVER COUNTY  NOT AVBL
BUTLER*        MOSUNNY   73  57  56 CALM      30.20S
PITTSBURGH INT PTSUNNY   74  57  55 N6        30.20R
PITTSBURGH     PTSUNNY   75  56  51 N6        30.19S
INDIANA*       PTSUNNY   73  59  60 E7        30.23S
LATROBE        MOSUNNY   73  57  56 CALM      30.21S
WASHINGTON CO* SUNNY     72  57  60 CALM      30.21S
$$

PAZ004>006-010>012-017>019-024>028-033>037-041-042-045-046-049>053-260000-
CENTRAL PENNSYLVANIA

CITY           SKY/WX    TMP DP  RH WIND       PRES   REMARKS
BRADFORD       CLOUDY    63  56  78 VRB3      30.25R
DUBOIS         CLOUDY    69  53  56 N5        30.21S
CLEARFIELD     PTSUNNY   68  57  68 N5        30.21S
JOHNSTOWN      PTSUNNY   67  56  67 N7        30.23R
ALTOONA        CLOUDY    69  59  70 N7        30.21R
STATE COLLEGE  PTSUNNY   68  59  73 N7        30.19R
WILLIAMSPORT   CLOUDY    71  58  63 N6        30.17R
SELINSGROVE    CLOUDY    71  60  68 N7        30.17R
FT INDIANTOWN  CLOUDY    72  59  64 CALM      30.16R
CAPITAL CITY   CLOUDY    74  58  57 NW5       30.16R
HARRISBURG     CLOUDY    74  60  61 N5        30.15R
YORK           CLOUDY    72  62  71 N5        30.16R
$$

PAZ038>040-043-044-047-048-054-055-060>062-067>071-260000-
EASTERN PENNSYLVANIA

CITY           SKY/WX    TMP DP  RH WIND       PRES   REMARKS
SCRANTON       CLOUDY    69  59  70 N10       30.18R
MOUNT POCONO   CLOUDY    65  58  78 N3        30.19R
ALLENTOWN      CLOUDY    73  61  65 NW5       30.15R
QUAKERTOWN*    CLOUDY    72  64  78 NE7       30.16R
READING        CLOUDY    73  64  73 N9        30.14R
LANCASTER      CLOUDY    74  62  66 N6        30.15R
COATESVILLE    MOCLDY    73  63  68 N7        30.17R
POTTSTOWN      CLOUDY    72  62  71 N6        30.16R
BLUE BELL      CLOUDY    70  66  88 CALM      30.15R
DOYLESTOWN     CLOUDY    68  65  90 VRB3      30.14R
WILLOW GROVE   NOT AVBL
NORTH PHILA    CLOUDY    73  66  78 NE5       30.15R
PHILADELPHIA   CLOUDY    76  62  62 CALM      30.13R
$$



USA.gov is the U.S. government's official web portal to all federal, state and local government web resources and services.